sat.trackr.live / text

‹ back to catalog

STARLINK-11383 [DTC]

NORAD 61883 · 2024-204K

PAYLOAD ACTIVE UNKNOWN

§ Identity

Operator
Country
US
Launch date
2024-11-09
Launch site
AFWTR
Launch vehicle
Mass (kg)
RCS (m²)

Purposes: comms

External: N2YO · Heavens-Above · Gunter

§ Orbital elements

Epoch: 2026-05-24T22:40:18.307776Z

Period
91.74 min
Inclination
53.1593°
Eccentricity
0.0001115
Mean motion
15.69701625 rev/d
Perigee alt
359.0 km
Apogee alt
360.5 km
Semi-major
6,737.9 km
B*
1.4123e-5
RAAN
340.1787°
Arg perigee
103.6134°
Mean anomaly
256.5008°
Rev number
8,889

§ Raw data

STARLINK-11383 [DTC]1 61883U 24204K   26144.94465634  .00001122  00000+0  14123-4 0  99962 61883  53.1593 340.1787 0001115 103.6134 256.5008 15.69701625 88891

JSON: /api/v1/satellites/61883 · /tle

For live sub-satellite position, see the globe view (requires WebGL).

§ Visibility from observer

Set your observer location to see the next 7 days of passes ≥ 10°. The values pass through the URL so the page stays shareable.

No JS? Fill the form by hand. The geolocation button needs JavaScript.